Weather Service Report


270 
ASUS41 KBTV 251030
RWRBTV
VERMONT REGIONAL WEATHER ROUNDUP
NATIONAL WEATHER SERVICE BURLINGTON VT
600 AM EDT SUN SEP 25 2016

NOTE: "FAIR" INDICATES FEW OR NO CLOUDS BELOW 12,000 FEET WITH NO 
SIGNIFICANT WEATHER AND/OR OBSTRUCTIONS TO VISIBILITY.

* THESE REPORTS ARE NOT UNDER NWS QUALITY CONTROL AND/OR DO NOT
  REPORT WEATHER SUCH AS PRECIPITATION AND FOG.

VTZ001>019-251100-
_____VERMONT_____

  
CITY           SKY/WX    TMP DP  RH WIND       PRES   REMARKS
BURLINGTON     PTCLDY    39  35  86 CALM      30.19R                  
MONTPELIER     CLEAR     40  34  79 SW3       30.19S                  
MORRISVILLE    CLEAR     32  30  92 SW5       30.19R WCI  27          
ST. JOHNSBURY*   N/A     35  34  96 MISG      30.14                   
LYNDONVILLE*   FAIR      34  33  95 W3        30.15S                  
MIDDLEBURY*    FAIR      38  38 100 CALM      30.19S                  
RUTLAND*       CLEAR     36  34  92 SE3       30.20R                  
SPRINGFIELD    CLEAR     33  30  88 CALM      30.18R                  
HIGHGATE*      FAIR      37  37  99 CALM      30.19R                  
NEWPORT*       FAIR      40  35  80 NW6       30.15R                  
BENNINGTON     CLEAR     33  32  96 CALM      30.18R                  
SUTTON*          N/A     36 N/A N/A MISG        N/A                   
ISLAND POND*     N/A     39 N/A N/A CALM        N/A                   
GALLUP MILLS*    N/A     30 N/A N/A MISG        N/A                   
UNION VILLAGE*   N/A     34 N/A N/A MISG        N/A                   
MT. MANSFIELD*   N/A     34 N/A N/A NW31        N/A  WCI  20          

_____LAKE CHAMPLAIN_____

  
CITY           SKY/WX    TMP DP  RH WIND       PRES   REMARKS
BURTON ISLAND*   N/A     52  45  76 W5          N/A                   
COLCHESTER RF*   N/A     52  43  71 NW24        N/A                   
DIAMOND ISL*     N/A     50  36  57 W15         N/A                   

$$

NYZ007-026>031-035-052-083-087-251100-
_____NORTHERN NEW YORK_____

  
CITY           SKY/WX    TMP DP  RH WIND       PRES   REMARKS
PLATTSBURGH    CLEAR     44  36  73 W5        30.19R                  
SARANAC LAKE   CLEAR     26  23  88 CALM      30.20R                  
MASSENA        CLEAR     38  34  85 SW3       30.26R                  
OGDENSBURG*    CLEAR     34  32  93 CALM      30.25S                  
POTSDAM*       CLEAR     34  34 100 CALM      30.25S                  
STARK FALLS*     N/A     68 N/A N/A SW1         N/A                   
WATERTOWN      CLEAR     32  31  96 E5        30.26R WCI  27          
FT DRUM        CLEAR     36  33  89 S2        30.24R                  
ALBANY         CLEAR     41  38  89 CALM      30.21R                  
GLENS FALLS    CLEAR     37  35  92 CALM      30.20R                  

$$
NHZ002-005-011-251100-
_____NEW HAMPSHIRE_____

  
CITY           SKY/WX    TMP DP  RH WIND       PRES   REMARKS
LEBANON        CLEAR     35  34  96 S3        30.16R                  
KEENE          FOG       36  36 100 CALM      30.18R VSB 1/4          
MT WASHINGTON  FOG       23  23 100 NW56G68     N/A  VSB 1/16WCI   1  
PLYMOUTH       FAIR      40  35  83 W5        30.14R                  
WHITEFIELD     MOCLDY    32  29  88 CALM      30.13R                  

$$

_____REGIONAL QUEBEC LOCATIONS_____

  
CITY           SKY/WX    TMP DP  RH WIND       PRES   REMARKS
MONTREAL       CLEAR     43  37  81 NW9       30.19R                  
QUEBEC CITY    MOCLDY    43  37  81 W14       30.08R                  
SHERBROOKE     CLEAR     37  36  93 W5        30.12R                  

_____REGIONAL ONTARIO LOCATIONS_____

  
CITY           SKY/WX    TMP DP  RH WIND       PRES   REMARKS
OTTAWA         CLEAR     41  36  81 W5        30.24S                  

______KEY______
VSB  - VISIBILITY IN MILES
WCI  - WIND CHILL INDEX
HX   - HEAT INDEX
$$
NNNN
  

Return to Home page


Western Regional Climate Center, wrcc@dri.edu